TimeEEST,TemperatureF,Dew PointF,Humidity,Sea Level PressureIn,VisibilityMPH,Wind Direction,Wind SpeedMPH,Gust SpeedMPH,PrecipitationIn,Events,Conditions,WindDirDegrees,DateUTC
12:20 AM,46.4,41.0,81,30.27,-9999.0,North,1.2,-,N/A,,Clear,10,2012-10-15 21:20:00
12:50 AM,44.6,39.2,81,30.27,-9999.0,NE,2.3,-,N/A,,Clear,40,2012-10-15 21:50:00
1:20 AM,46.4,41.0,81,30.27,-9999.0,NE,4.6,-,N/A,,Clear,50,2012-10-15 22:20:00
1:50 AM,44.6,41.0,87,30.27,-9999.0,NE,2.3,-,N/A,,Clear,40,2012-10-15 22:50:00
2:20 AM,42.8,39.2,87,30.27,-9999.0,NNE,2.3,-,N/A,,Clear,20,2012-10-15 23:20:00
2:50 AM,42.8,39.2,87,30.27,-9999.0,NNE,4.6,-,N/A,,Clear,30,2012-10-15 23:50:00
3:00 AM,44,39,77,,12,NNE,4.6,,,,,30,2012-10-16 00:00:00
3:20 AM,44.6,41.0,87,30.27,-9999.0,ENE,2.3,-,N/A,,Clear,70,2012-10-16 00:20:00
3:50 AM,42.8,39.2,87,30.27,-9999.0,Calm,Calm,-,N/A,,Clear,0,2012-10-16 00:50:00
4:20 AM,39.2,37.4,93,30.27,-9999.0,Calm,Calm,-,N/A,,Clear,0,2012-10-16 01:20:00
4:50 AM,41.0,39.2,93,30.27,-9999.0,Calm,Calm,-,N/A,,Clear,0,2012-10-16 01:50:00
5:20 AM,41.0,39.2,93,30.27,-9999.0,NE,1.2,-,N/A,,Clear,40,2012-10-16 02:20:00
5:50 AM,41.0,39.2,93,30.27,-9999.0,NE,4.6,-,N/A,,Clear,40,2012-10-16 02:50:00
6:20 AM,41.0,37.4,87,30.27,-9999.0,Calm,Calm,-,N/A,,Clear,0,2012-10-16 03:20:00
6:50 AM,39.2,37.4,93,30.27,-9999.0,Calm,Calm,-,N/A,,Clear,0,2012-10-16 03:50:00
7:20 AM,41.0,39.2,93,30.27,-9999.0,NNE,2.3,-,N/A,,Clear,30,2012-10-16 04:20:00
7:50 AM,44.6,41.0,87,30.30,-9999.0,NE,4.6,-,N/A,,Clear,40,2012-10-16 04:50:00
8:20 AM,50.0,42.8,76,30.30,-9999.0,Variable,1.2,-,N/A,,Clear,0,2012-10-16 05:20:00
8:50 AM,53.6,42.8,67,30.30,-9999.0,Calm,Calm,-,N/A,,Clear,0,2012-10-16 05:50:00
9:00 AM,54,42,54,,12,Calm,Calm,,,,,,2012-10-16 06:00:00
9:20 AM,55.4,42.8,63,30.30,-9999.0,Calm,Calm,-,N/A,,Clear,0,2012-10-16 06:20:00
9:50 AM,59.0,42.8,55,30.30,-9999.0,Calm,Calm,-,N/A,,Clear,0,2012-10-16 06:50:00
10:20 AM,60.8,42.8,52,30.30,-9999.0,Calm,Calm,-,N/A,,Clear,0,2012-10-16 07:20:00
10:50 AM,64.4,42.8,45,30.30,-9999.0,Variable,1.2,-,N/A,,Clear,0,2012-10-16 07:50:00
11:20 AM,66.2,41.0,40,30.30,-9999.0,Calm,Calm,-,N/A,,Clear,0,2012-10-16 08:20:00
11:50 AM,68.0,39.2,35,30.30,-9999.0,Variable,1.2,-,N/A,,Clear,0,2012-10-16 08:50:00
12:20 PM,69.8,39.2,33,30.30,-9999.0,Calm,Calm,-,N/A,,Clear,0,2012-10-16 09:20:00
12:50 PM,71.6,35.6,27,30.27,-9999.0,Variable,1.2,-,N/A,,Clear,0,2012-10-16 09:50:00
1:20 PM,73.4,37.4,27,30.27,-9999.0,Variable,1.2,-,N/A,,Clear,0,2012-10-16 10:20:00
1:50 PM,73.4,33.8,23,30.24,-9999.0,Variable,2.3,-,N/A,,Clear,0,2012-10-16 10:50:00
2:20 PM,75.2,35.6,24,30.24,-9999.0,Variable,1.2,-,N/A,,Clear,0,2012-10-16 11:20:00
2:50 PM,73.4,33.8,23,30.24,-9999.0,Calm,Calm,-,N/A,,Clear,0,2012-10-16 11:50:00
3:00 PM,74,34,13,,12,Calm,Calm,,,,,,2012-10-16 12:00:00
3:20 PM,75.2,33.8,22,30.24,-9999.0,Variable,1.2,-,N/A,,Clear,0,2012-10-16 12:20:00
3:50 PM,75.2,35.6,24,30.24,-9999.0,Variable,2.3,-,N/A,,Clear,0,2012-10-16 12:50:00
4:20 PM,75.2,37.4,25,30.24,-9999.0,SW,5.8,-,N/A,,Clear,230,2012-10-16 13:20:00
4:50 PM,75.2,37.4,25,30.24,-9999.0,WSW,5.8,-,N/A,,Clear,250,2012-10-16 13:50:00
5:20 PM,73.4,35.6,25,30.24,-9999.0,WNW,8.1,-,N/A,,Clear,300,2012-10-16 14:20:00
5:50 PM,69.8,35.6,28,30.24,-9999.0,NW,5.8,-,N/A,,Clear,310,2012-10-16 14:50:00
6:20 PM,66.2,35.6,32,30.24,-9999.0,West,2.3,-,N/A,,Clear,280,2012-10-16 15:20:00
6:50 PM,62.6,37.4,39,30.24,-9999.0,Calm,Calm,-,N/A,,Clear,0,2012-10-16 15:50:00
7:20 PM,60.8,41.0,48,30.27,-9999.0,Variable,2.3,-,N/A,,Clear,0,2012-10-16 16:20:00
7:50 PM,60.8,39.2,45,30.27,-9999.0,Variable,2.3,-,N/A,,Clear,0,2012-10-16 16:50:00
8:20 PM,59.0,39.2,48,30.27,-9999.0,South,3.5,-,N/A,,Clear,170,2012-10-16 17:20:00
8:50 PM,60.8,37.4,42,30.27,-9999.0,Variable,1.2,-,N/A,,Clear,0,2012-10-16 17:50:00
9:00 PM,60,38,32,,12,SSW,1.2,,,,,200,2012-10-16 18:00:00
9:20 PM,55.4,41.0,58,30.27,-9999.0,Calm,Calm,-,N/A,,Clear,0,2012-10-16 18:20:00
9:50 PM,53.6,41.0,62,30.27,-9999.0,Calm,Calm,-,N/A,,Clear,0,2012-10-16 18:50:00
10:20 PM,53.6,41.0,62,30.27,-9999.0,Variable,1.2,-,N/A,,Clear,0,2012-10-16 19:20:00
10:50 PM,51.8,41.0,67,30.27,-9999.0,NE,1.2,-,N/A,,Clear,40,2012-10-16 19:50:00
11:20 PM,50.0,41.0,71,30.27,-9999.0,Calm,Calm,-,N/A,,Clear,0,2012-10-16 20:20:00
11:50 PM,48.2,41.0,76,30.27,-9999.0,NNE,1.2,-,N/A,,Clear,30,2012-10-16 20:50:00